Hourly Weather Vanadzor

Today, 12 August, Wednesday

Time Temperature Precipitation Wind Pressure Humidity
00:00 +15°C° 0 mm 1 mps 634 mmHg 93%
01:00 +15°C° 0 mm 1 mps 634 mmHg 93%
02:00 +15°C° 0 mm 1 mps 634 mmHg 94%
03:00 +14°C° 0 mm 1 mps 633 mmHg 94%
04:00 +15°C° 0 mm 1 mps 634 mmHg 94%
05:00 +15°C° 0 mm 1 mps 634 mmHg 94%
06:00 +15°C° 0 mm 1 mps 634 mmHg 93%
07:00 +16°C° 0.1 mm 1 mps 635 mmHg 89%
08:00 +19°C° 0.1 mm 1 mps 635 mmHg 85%
09:00 +19°C° 0 mm 2 mps 635 mmHg 78%
10:00 +20°C° 0.2 mm 2 mps 635 mmHg 75%
11:00 +21°C° 0.2 mm 2 mps 636 mmHg 73%
12:00 +23°C° 0.2 mm 2 mps 636 mmHg 70%
13:00 +23°C° 0.3 mm 2 mps 636 mmHg 70%
14:00 +23°C° 0.3 mm 2 mps 635 mmHg 69%
15:00 +23°C° 0 mm 2 mps 635 mmHg 68%
16:00 +23°C° 0.1 mm 2 mps 635 mmHg 71%
17:00 +21°C° 0.1 mm 2 mps 635 mmHg 74%
18:00 +21°C° 0.1 mm 2 mps 635 mmHg 77%
19:00 +20°C° 0 mm 1 mps 635 mmHg 80%
20:00 +19°C° 0 mm 1 mps 635 mmHg 84%
21:00 +16°C° 0 mm 1 mps 635 mmHg 87%
22:00 +16°C° 0 mm 1 mps 635 mmHg 87%
23:00 +15°C° 0 mm 1 mps 635 mmHg 87%

Tomorrow, 13 August, Thursday

Time Temperature Precipitation Wind Pressure Humidity
00:00 +15°C° 0 mm 1 mps 635 mmHg 87%
01:00 +15°C° 0 mm 1 mps 634 mmHg 88%
02:00 +14°C° 0 mm 1 mps 634 mmHg 88%
03:00 +14°C° 0 mm 1 mps 634 mmHg 89%
04:00 +14°C° 0 mm 1 mps 634 mmHg 90%
05:00 +14°C° 0 mm 1 mps 634 mmHg 91%
06:00 +14°C° 0 mm 1 mps 634 mmHg 93%
07:00 +16°C° 0 mm 1 mps 634 mmHg 89%
08:00 +18°C° 0 mm 1 mps 635 mmHg 85%
09:00 +18°C° 0 mm 2 mps 635 mmHg 82%
10:00 +19°C° 0.4 mm 2 mps 635 mmHg 81%
11:00 +19°C° 0.4 mm 2 mps 635 mmHg 81%
12:00 +20°C° 0.4 mm 2 mps 634 mmHg 80%
13:00 +20°C° 0.5 mm 2 mps 634 mmHg 77%
14:00 +21°C° 0.5 mm 2 mps 634 mmHg 74%
15:00 +23°C° 0.5 mm 2 mps 634 mmHg 71%
16:00 +21°C° 0.7 mm 2 mps 634 mmHg 74%
17:00 +21°C° 0.7 mm 2 mps 634 mmHg 78%
18:00 +20°C° 0.7 mm 2 mps 634 mmHg 82%
19:00 +19°C° 0.2 mm 2 mps 634 mmHg 84%
20:00 +18°C° 0.2 mm 2 mps 634 mmHg 87%
21:00 +18°C° 0.2 mm 1 mps 634 mmHg 90%
22:00 +16°C° 0 mm 1 mps 634 mmHg 91%
23:00 +16°C° 0 mm 1 mps 634 mmHg 92%

Day after tomorrow, 14 August, Friday

Time Temperature Precipitation Wind Pressure Humidity
00:00 +15°C° 0 mm 1 mps 634 mmHg 93%
01:00 +15°C° 0 mm 1 mps 634 mmHg 93%
02:00 +15°C° 0 mm 1 mps 634 mmHg 94%
03:00 +14°C° 0 mm 1 mps 633 mmHg 94%
04:00 +15°C° 0 mm 1 mps 634 mmHg 94%
05:00 +15°C° 0 mm 1 mps 634 mmHg 94%
06:00 +15°C° 0 mm 1 mps 634 mmHg 94%
07:00 +16°C° 0 mm 1 mps 634 mmHg 89%
08:00 +18°C° 0 mm 1 mps 634 mmHg 84%
09:00 +18°C° 0 mm 2 mps 634 mmHg 79%
10:00 +19°C° 0.2 mm 2 mps 634 mmHg 77%
11:00 +19°C° 0.2 mm 2 mps 634 mmHg 75%
12:00 +20°C° 0.2 mm 2 mps 634 mmHg 73%
13:00 +20°C° 0.2 mm 2 mps 633 mmHg 73%
14:00 +20°C° 0.2 mm 2 mps 633 mmHg 73%
15:00 +20°C° 0.2 mm 2 mps 633 mmHg 72%
16:00 +20°C° 0.1 mm 2 mps 633 mmHg 74%
17:00 +20°C° 0.1 mm 2 mps 633 mmHg 77%
18:00 +19°C° 0.1 mm 2 mps 633 mmHg 79%
19:00 +18°C° 0 mm 2 mps 633 mmHg 82%
20:00 +18°C° 0 mm 1 mps 633 mmHg 85%
21:00 +15°C° 0 mm 1 mps 633 mmHg 89%
22:00 +15°C° 0 mm 1 mps 633 mmHg 89%
23:00 +15°C° 0 mm 1 mps 633 mmHg 89%

15 August, Saturday

Time Temperature Precipitation Wind Pressure Humidity
00:00 +15°C° 0 mm 1 mps 633 mmHg 89%
01:00 +15°C° 0 mm 1 mps 633 mmHg 90%
02:00 +15°C° 0 mm 1 mps 633 mmHg 90%
03:00 +14°C° 0 mm 1 mps 633 mmHg 91%
04:00 +14°C° 0 mm 1 mps 633 mmHg 90%
05:00 +15°C° 0 mm 1 mps 633 mmHg 90%
06:00 +15°C° 0 mm 1 mps 633 mmHg 90%
07:00 +15°C° 0 mm 1 mps 633 mmHg 85%
08:00 +16°C° 0 mm 1 mps 633 mmHg 80%
09:00 +17°C° 0 mm 2 mps 633 mmHg 75%
10:00 +18°C° 0 mm 2 mps 634 mmHg 72%
11:00 +19°C° 0 mm 2 mps 634 mmHg 69%
12:00 +20°C° 0 mm 2 mps 634 mmHg 66%
13:00 +20°C° 0 mm 2 mps 633 mmHg 66%
14:00 +20°C° 0 mm 2 mps 633 mmHg 66%
15:00 +20°C° 0 mm 2 mps 633 mmHg 66%
16:00 +20°C° 0 mm 2 mps 633 mmHg 69%
17:00 +19°C° 0 mm 2 mps 633 mmHg 72%
18:00 +19°C° 0 mm 2 mps 633 mmHg 75%
19:00 +17°C° 0 mm 2 mps 633 mmHg 77%
20:00 +16°C° 0 mm 1 mps 633 mmHg 79%
21:00 +15°C° 0 mm 1 mps 633 mmHg 82%
22:00 +14°C° 0 mm 1 mps 633 mmHg 83%
23:00 +13°C° 0 mm 1 mps 633 mmHg 85%

16 August, Sunday

Time Temperature Precipitation Wind Pressure Humidity
00:00 +13°C° 0 mm 1 mps 633 mmHg 86%
01:00 +12°C° 0 mm 1 mps 633 mmHg 88%
02:00 +12°C° 0 mm 1 mps 632 mmHg 90%
03:00 +12°C° 0 mm 1 mps 632 mmHg 91%
04:00 +12°C° 0 mm 1 mps 632 mmHg 91%
05:00 +12°C° 0 mm 1 mps 632 mmHg 92%
06:00 +12°C° 0 mm 1 mps 632 mmHg 92%
07:00 +14°C° 0 mm 1 mps 633 mmHg 89%
08:00 +15°C° 0 mm 2 mps 633 mmHg 87%
09:00 +16°C° 0 mm 2 mps 634 mmHg 84%
10:00 +17°C° 0.1 mm 2 mps 634 mmHg 83%
11:00 +17°C° 0.1 mm 2 mps 634 mmHg 83%
12:00 +18°C° 0.1 mm 2 mps 633 mmHg 83%
13:00 +18°C° 0.1 mm 2 mps 633 mmHg 84%
14:00 +18°C° 0.1 mm 2 mps 633 mmHg 86%
15:00 +18°C° 0.1 mm 2 mps 633 mmHg 87%
16:00 +17°C° 0.2 mm 2 mps 632 mmHg 89%
17:00 +16°C° 0.2 mm 2 mps 632 mmHg 91%
18:00 +16°C° 0.2 mm 2 mps 632 mmHg 94%
19:00 +15°C° 0.5 mm 2 mps 632 mmHg 95%
20:00 +15°C° 0.5 mm 2 mps 632 mmHg 96%
21:00 +15°C° 0.5 mm 2 mps 633 mmHg 96%
22:00 +14°C° 0.8 mm 2 mps 633 mmHg 97%
23:00 +14°C° 0.8 mm 1 mps 633 mmHg 97%

17 August, Monday

Time Temperature Precipitation Wind Pressure Humidity
00:00 +14°C° 0.8 mm 1 mps 632 mmHg 97%
01:00 +14°C° 0.4 mm 1 mps 632 mmHg 97%
02:00 +14°C° 0.4 mm 1 mps 632 mmHg 97%
03:00 +14°C° 0.4 mm 1 mps 632 mmHg 97%
04:00 +14°C° 0.1 mm 1 mps 633 mmHg 97%
05:00 +14°C° 0.1 mm 1 mps 633 mmHg 97%
06:00 +14°C° 0.1 mm 1 mps 633 mmHg 97%
07:00 +14°C° 0 mm 1 mps 633 mmHg 95%
08:00 +15°C° 0 mm 1 mps 633 mmHg 94%
09:00 +15°C° 0 mm 2 mps 634 mmHg 92%
10:00 +16°C° 0 mm 2 mps 633 mmHg 91%
11:00 +16°C° 0 mm 2 mps 633 mmHg 91%
12:00 +16°C° 0 mm 2 mps 633 mmHg 90%
13:00 +16°C° 0 mm 2 mps 633 mmHg 90%
14:00 +16°C° 0 mm 2 mps 633 mmHg 90%
15:00 +16°C° 0 mm 2 mps 633 mmHg 90%
16:00 +16°C° 0 mm 2 mps 633 mmHg 91%
17:00 +15°C° 0 mm 2 mps 633 mmHg 92%
18:00 +15°C° 0 mm 2 mps 633 mmHg 93%
19:00 +15°C° 0 mm 2 mps 633 mmHg 94%
20:00 +14°C° 0 mm 2 mps 633 mmHg 95%
21:00 +14°C° 0 mm 2 mps 634 mmHg 96%
22:00 +14°C° 0 mm 2 mps 634 mmHg 96%
23:00 +14°C° 0 mm 2 mps 634 mmHg 96%
Show more